This is the latest recevied weather packets stored in our database for station/object N3WMC. If no packets are shown the sender has not sent any weather packets the latest 10 day(s).
| Time | Temp. | Humidity | Pressure | Rain* | Wind** | Luminosity | Snow |
|---|---|---|---|---|---|---|---|
| 1787749918 | 21.11° C | 82% | 1019.9 hPa | 0 mm | - | 326 W/m² | - |
| 1787749613 | 20° C | 85% | 1019.9 hPa | 0 mm | - | 312 W/m² | - |
| 1787749304 | 19.44° C | 86% | 1020 hPa | 0 mm | - | 302 W/m² | - |
| 1787748999 | 18.89° C | 91% | 1019.8 hPa | 0 mm | - | 286 W/m² | - |
| 1787748692 | 17.78° C | 93% | 1020.1 hPa | 0 mm | - | 224 W/m² | - |
| 1787748388 | 17.78° C | 97% | 1020 hPa | 0 mm | - | 233 W/m² | - |
| 1787748085 | 17.78° C | 99% | 1020.2 hPa | 0 mm | - | 218 W/m² | - |
| 1787747783 | 17.22° C | 99% | 1020.2 hPa | 0 mm | - | 237 W/m² | - |
| 1787747479 | 16.67° C | 99% | 1020.2 hPa | 0 mm | - | 219 W/m² | - |
| 1787747173 | 16.11° C | 99% | 1020.3 hPa | 0 mm | - | 143 W/m² | - |
| 1787746870 | 16.67° C | 99% | 1020.3 hPa | 0 mm | - | 134 W/m² | - |
| 1787746570 | 15.56° C | 99% | 1020.3 hPa | 0 mm | - | 125 W/m² | - |
| 1787746269 | 15° C | 99% | 1020.1 hPa | 0 mm | - | 122 W/m² | - |
| 1787745968 | 15° C | 99% | 1020.2 hPa | 0 mm | - | 106 W/m² | - |
| 1787745663 | 15° C | 99% | 1020.3 hPa | 0 mm | - | 164 W/m² | - |
| 1787745356 | 15° C | 99% | 1020.4 hPa | 0 mm | - | 113 W/m² | - |
| 1787745055 | 14.44° C | 99% | 1020.4 hPa | 0 mm | - | 82 W/m² | - |
| 1787744751 | 14.44° C | 99% | 1020.5 hPa | 0 mm | - | 63 W/m² | - |
| 1787744443 | 14.44° C | 99% | 1020.2 hPa | 0 mm | - | 54 W/m² | - |
| 1787744138 | 14.44° C | 99% | 1020.3 hPa | 0 mm | - | 45 W/m² | - |
| 1787743833 | 14.44° C | 99% | 1020.2 hPa | 0 mm | - | 42 W/m² | - |
| 1787743532 | 14.44° C | 99% | 1020.4 hPa | 0 mm | - | 35 W/m² | - |
| 1787743228 | 13.89° C | 99% | 1020.3 hPa | 0 mm | - | 31 W/m² | - |
| 1787742925 | 13.89° C | 99% | 1020.1 hPa | 0 mm | - | 24 W/m² | - |
| 1787742619 | 13.89° C | 99% | 1020.2 hPa | 0 mm | - | 19 W/m² | - |
* Rain latest hour (hover to see other rain measurements)
** Current wind speed in m/s (hover to see current wind gust speed)